Weather Roundup
Issued by NWS

Home | Current Version | Previous Version | Text Only | Print | Product List | Glossary On
Versions: 1 2 3 4 5 6 7 8 9 10 11 12 13 14 15 16 17 18 19 20 21 22 23 24 25 26 27 28 29 30 31 32 33 34 35 36 37 38 39 40 41 42 43 44 45 46 47 48 49 50
000
NZUS93 KARX 191459
HRRWXR

CURRENT HOURLY OBSERVATIONS ACROSS
MUCH OF THE UPPER MISSISSIPPI VALLEY
NATIONAL WEATHER SERVICE LA CROSSE WI
1000 AM CDT FRI SEP 19 2014


...SOUTHEAST MINNESOTA...


CITY           SKY/WX    TMP DP  RH WIND       PRES   REMARKS
ROCHESTER      MOSUNNY   63  53  70 S14G26    29.95F
ROCHESTER/MAYO FAIR      62  50  66 SE14G23   29.94F
WINONA         SUNNY     63  52  67 S6        29.98S
AUSTIN         PTSUNNY   61  54  77 S17G24    29.94F
ALBERT LEA     CLOUDY    63  55  77 S13G22    29.91F
DODGE CENTER   PTSUNNY   63  54  72 S25G32    29.93F
PRESTON        SUNNY     61  56  83 S16G25    29.98F
OWATONNA       CLOUDY    63  54  72 S16G24    29.90F
FARIBAULT      CLOUDY    64  52  63 S14G22    29.88F
$$

...ELSEWHERE IN MINNESOTA...


CITY           SKY/WX    TMP DP  RH WIND       PRES   REMARKS
MINNEAPOLIS    CLOUDY    63  54  72 S16G26    29.86F
INTNL FALLS    CLOUDY    60  54  80 S8G20     29.61F
DULUTH         CLOUDY    60  52  74 S15G25    29.79F
RED WING       MOSUNNY   64  52  63 SE8       29.91F
REDWOOD FALLS  CLOUDY    64  60  87 S21       29.77F
MANKATO        CLOUDY    63  54  72 S16G23    29.84F
WORTHINGTON    CLOUDY    63  61  94 S16G24    29.82F
FAIRMONT       CLOUDY    61  52  72 S18G24    29.85F
$$

...SOUTHWEST WISCONSIN...


CITY           SKY/WX    TMP DP  RH WIND       PRES   REMARKS
LA CROSSE      SUNNY     63  52  67 S15G23    30.01F
PRAIRIE DU CHI SUNNY     59  52  77 SE7       30.06S
BOSCOBEL       SUNNY     63  53  70 VRB3      30.07F
LONE ROCK      SUNNY     64  53  67 SE7       30.08F
PLATTEVILLE    SUNNY     58  54  86 S10       30.10S
FORT MC COY    SUNNY     61  48  63 S10       30.04F
VIROQUA        FAIR      58  53  85 S9G16     30.05S
WIS DELLS      SUNNY     58  52  80 S9        30.08F
$$

...ELSEWHERE IN WISCONSIN...


CITY           SKY/WX    TMP DP  RH WIND       PRES   REMARKS
MILWAUKEE      PTSUNNY   65  55  70 S10       30.14F
MADISON        MOSUNNY   63  53  70 S14       30.11F
GREEN BAY      MOSUNNY   62  57  83 S15G21    30.08F
EAU CLAIRE     NOT AVBL
BLACK RVR FLS  FAIR      60  52  73 S8        30.02F
MEDFORD        PTSUNNY   55  51  87 S13G18    30.02F
WAUSAU         CLOUDY    56  51  84 S14       30.04F
WIS RAPIDS     MOSUNNY   58  53  84 S9        30.07F
MARSHFIELD     MOSUNNY   56  52  86 S14       30.03F FOG
RICE LAKE      CLOUDY    58  52  80 SE12      29.93F
$$

...NORTHEAST IOWA...


CITY           SKY/WX    TMP DP  RH WIND       PRES   REMARKS
WATERLOO       SUNNY     63  53  70 S13       30.01S
DUBUQUE        SUNNY     60  54  80 S13       30.09F
DECORAH        SUNNY     59  52  77 S13       30.01F
MASON CITY     CLOUDY    62  56  80 S14G22    29.96F
CHARLES CITY   MOSUNNY   63  54  72 S14G21    30.00R
OELWEIN        SUNNY     61  54  77 S13G20    30.04F
$$

...ELSEWHERE IN IOWA...


CITY           SKY/WX    TMP DP  RH WIND       PRES   REMARKS
DES MOINES     PTSUNNY   67  60  78 S20G26    29.99F
IOWA CITY      SUNNY     62  55  77 S9        30.08F
FORT DODGE     MOSUNNY   64  57  77 S16G23    29.94S
MARSHALLTOWN   SUNNY     65  56  72 S17G23    30.00F
CEDAR RAPIDS   SUNNY     63  55  75 SE9G20    30.05F
$$

...NORTHERN ILLINOIS...


CITY           SKY/WX    TMP DP  RH WIND       PRES   REMARKS
CHICAGO-OHARE  MOSUNNY   63  51  65 S12       30.16S
DUPAGE         MOSUNNY   64  53  67 S9        30.16S
CHICAGO-MIDWAY MOSUNNY   65  51  60 S9G17     30.17S
MOLINE         SUNNY     64  53  67 S10       30.11S
ROCKFORD       MOSUNNY   63  53  70 S15       30.15S
STERLING       SUNNY     64  54  68 S6        30.12F
PEORIA         SUNNY     65  52  62 S8        30.13F
$$

NOTE: "FAIR" INDICATES FEW OR NO CLOUDS BELOW 12,000 FEET WITH NO
SIGNIFICANT WEATHER AND/OR OBSTRUCTIONS TO VISIBILITY. WIND
SPEEDS ARE IN MILES-PER-HOUR.



USA.gov is the U.S. government's official web portal to all federal, state and local government web resources and services.